Location: Bern�tre
(50.1974°N, 2.0915°E)
Time: 06:08:36
(UTC+00:00)

Cosmos 2278 Rocket - Pass Details

Date: 18 September 2020
Orbit: 841 x 845 km, 71.0° (Epoch: 22 October)

Event Time Altitude Azimuth Distance (km) Brightness Sun altitude
Exits shadow 23:04:21 31° 342° (NNW) 1,457 3.8 -37.7°
Drops below altitude 10° 23:08:05 10° 18° (NNE) 2,472 5.2 -37.8°
Sets 23:10:46 0° 27° (NNE) 3,411 6.0 -37.9°
